When you browse on this site, cookies collect data to enhance your experience and personalize the content and advertising you see.
Visit our Privacy Policy to learn more. By continuing to use the site, you agree to this use of cookies and data.
  • Em Portugal
  • Lista de países
  • Para 7 dias
  • Temperatura da água
  • Mapa do tempo
  • Widgets de tempo
  • user-avatar
    Iniciar Sessão

    Previsão horária em Córdoba

    Hoje, 24 Outubro, Quinta-feira

    Tempo Temperatura Precipitação Vento Pressão Humidade
    00:00 +18°C° 0 mm 2 m/s 724 mmHg 60%
    01:00 +19°C° 0 mm 1 m/s 723 mmHg 60%
    02:00 +19°C° 0 mm 1 m/s 723 mmHg 61%
    03:00 +18°C° 0 mm 1 m/s 723 mmHg 62%
    04:00 +18°C° 0 mm 1 m/s 723 mmHg 64%
    05:00 +16°C° 0 mm 1 m/s 723 mmHg 65%
    06:00 +18°C° 0 mm 2 m/s 724 mmHg 58%
    07:00 +20°C° 0 mm 2 m/s 724 mmHg 52%
    08:00 +22°C° 0 mm 3 m/s 724 mmHg 45%
    09:00 +25°C° 0 mm 4 m/s 724 mmHg 41%
    10:00 +27°C° 0 mm 5 m/s 724 mmHg 36%
    11:00 +29°C° 0 mm 6 m/s 724 mmHg 31%
    12:00 +30°C° 0 mm 6 m/s 724 mmHg 30%
    13:00 +30°C° 0 mm 6 m/s 723 mmHg 30%
    14:00 +32°C° 0 mm 6 m/s 722 mmHg 29%
    15:00 +30°C° 0 mm 6 m/s 722 mmHg 30%
    16:00 +30°C° 0 mm 6 m/s 722 mmHg 31%
    17:00 +29°C° 0 mm 5 m/s 721 mmHg 33%
    18:00 +28°C° 0 mm 5 m/s 722 mmHg 36%
    19:00 +26°C° 0 mm 4 m/s 722 mmHg 40%
    20:00 +24°C° 0 mm 3 m/s 723 mmHg 44%
    21:00 +22°C° 0 mm 3 m/s 723 mmHg 47%
    22:00 +21°C° 0 mm 2 m/s 724 mmHg 50%
    23:00 +22°C° 0 mm 1 m/s 724 mmHg 53%

    Amanhã, 25 Outubro, Sexta-feira

    Tempo Temperatura Precipitação Vento Pressão Humidade
    00:00 +20°C° 0 mm 1 m/s 724 mmHg 60%
    01:00 +19°C° 0 mm 1 m/s 724 mmHg 67%
    02:00 +18°C° 0 mm 1 m/s 723 mmHg 74%
    03:00 +18°C° 0 mm 1 m/s 724 mmHg 76%
    04:00 +16°C° 0 mm 0 m/s 724 mmHg 78%
    05:00 +15°C° 0 mm 0 m/s 724 mmHg 80%
    06:00 +19°C° 0.1 mm 1 m/s 725 mmHg 70%
    07:00 +20°C° 0.1 mm 2 m/s 725 mmHg 61%
    08:00 +22°C° 0.1 mm 3 m/s 725 mmHg 51%
    09:00 +25°C° 0 mm 4 m/s 725 mmHg 46%
    10:00 +27°C° 0 mm 4 m/s 725 mmHg 40%
    11:00 +30°C° 0 mm 5 m/s 725 mmHg 34%
    12:00 +30°C° 0 mm 6 m/s 724 mmHg 33%
    13:00 +32°C° 0 mm 6 m/s 724 mmHg 32%
    14:00 +33°C° 0 mm 7 m/s 723 mmHg 31%
    15:00 +33°C° 0 mm 7 m/s 722 mmHg 32%
    16:00 +32°C° 0 mm 7 m/s 722 mmHg 33%
    17:00 +32°C° 0 mm 7 m/s 721 mmHg 34%
    18:00 +29°C° 0 mm 6 m/s 722 mmHg 37%
    19:00 +27°C° 0 mm 5 m/s 722 mmHg 39%
    20:00 +26°C° 0 mm 4 m/s 722 mmHg 42%
    21:00 +25°C° 0 mm 5 m/s 722 mmHg 43%
    22:00 +23°C° 0 mm 5 m/s 722 mmHg 45%
    23:00 +23°C° 0 mm 5 m/s 721 mmHg 46%

    Depois de amanhã, 26 Outubro, Sábado

    Tempo Temperatura Precipitação Vento Pressão Humidade
    00:00 +22°C° 0 mm 4 m/s 721 mmHg 48%
    01:00 +21°C° 0 mm 4 m/s 720 mmHg 50%
    02:00 +20°C° 0 mm 4 m/s 720 mmHg 52%
    03:00 +20°C° 0 mm 4 m/s 719 mmHg 55%
    04:00 +19°C° 0 mm 3 m/s 719 mmHg 57%
    05:00 +19°C° 0 mm 3 m/s 719 mmHg 60%
    06:00 +20°C° 0 mm 5 m/s 719 mmHg 56%
    07:00 +22°C° 0 mm 6 m/s 719 mmHg 53%
    08:00 +24°C° 0 mm 7 m/s 719 mmHg 50%
    09:00 +27°C° 0 mm 8 m/s 718 mmHg 45%
    10:00 +31°C° 0 mm 8 m/s 718 mmHg 40%
    11:00 +33°C° 0 mm 9 m/s 717 mmHg 35%
    12:00 +35°C° 0 mm 8 m/s 717 mmHg 33%
    13:00 +37°C° 0 mm 8 m/s 716 mmHg 30%
    14:00 +38°C° 0 mm 8 m/s 715 mmHg 28%
    15:00 +39°C° 0 mm 7 m/s 715 mmHg 26%
    16:00 +39°C° 0 mm 5 m/s 715 mmHg 24%
    17:00 +38°C° 0 mm 4 m/s 714 mmHg 22%
    18:00 +35°C° 0 mm 5 m/s 715 mmHg 32%
    19:00 +30°C° 0 mm 6 m/s 716 mmHg 43%
    20:00 +27°C° 0 mm 7 m/s 716 mmHg 53%
    21:00 +24°C° 0 mm 7 m/s 717 mmHg 57%
    22:00 +23°C° 0 mm 6 m/s 717 mmHg 61%
    23:00 +21°C° 0 mm 6 m/s 718 mmHg 65%

    , 27 Outubro, Domingo

    Tempo Temperatura Precipitação Vento Pressão Humidade
    00:00 +21°C° 0 mm 5 m/s 718 mmHg 66%
    01:00 +21°C° 0 mm 5 m/s 718 mmHg 67%
    02:00 +20°C° 0 mm 4 m/s 717 mmHg 68%
    03:00 +20°C° 0.1 mm 4 m/s 718 mmHg 66%
    04:00 +20°C° 0.1 mm 3 m/s 718 mmHg 65%
    05:00 +20°C° 0.1 mm 2 m/s 718 mmHg 63%
    06:00 +21°C° 0.1 mm 3 m/s 719 mmHg 60%
    07:00 +21°C° 0.1 mm 3 m/s 719 mmHg 57%
    08:00 +22°C° 0.1 mm 3 m/s 719 mmHg 53%
    09:00 +22°C° 0.1 mm 3 m/s 719 mmHg 55%
    10:00 +22°C° 0.1 mm 3 m/s 719 mmHg 56%
    11:00 +24°C° 0.1 mm 3 m/s 719 mmHg 57%
    12:00 +25°C° 0 mm 3 m/s 719 mmHg 54%
    13:00 +27°C° 0 mm 3 m/s 718 mmHg 51%
    14:00 +28°C° 0 mm 3 m/s 718 mmHg 49%
    15:00 +28°C° 0 mm 3 m/s 717 mmHg 49%
    16:00 +28°C° 0 mm 3 m/s 716 mmHg 50%
    17:00 +28°C° 0 mm 4 m/s 716 mmHg 51%
    18:00 +26°C° 0 mm 3 m/s 716 mmHg 58%
    19:00 +25°C° 0 mm 2 m/s 716 mmHg 65%
    20:00 +23°C° 0 mm 1 m/s 716 mmHg 72%
    21:00 +23°C° 0 mm 1 m/s 716 mmHg 73%
    22:00 +22°C° 0 mm 1 m/s 716 mmHg 75%
    23:00 +22°C° 0 mm 1 m/s 716 mmHg 77%

    27 Outubro, Domingo

    Tempo Temperatura Precipitação Vento Pressão Humidade
    00:00 +21°C° 0 mm 5 m/s 718 mmHg 66%
    01:00 +21°C° 0 mm 5 m/s 718 mmHg 67%
    02:00 +20°C° 0 mm 4 m/s 717 mmHg 68%
    03:00 +20°C° 0.1 mm 4 m/s 718 mmHg 66%
    04:00 +20°C° 0.1 mm 3 m/s 718 mmHg 65%
    05:00 +20°C° 0.1 mm 2 m/s 718 mmHg 63%
    06:00 +21°C° 0.1 mm 3 m/s 719 mmHg 60%
    07:00 +21°C° 0.1 mm 3 m/s 719 mmHg 57%
    08:00 +22°C° 0.1 mm 3 m/s 719 mmHg 53%
    09:00 +22°C° 0.1 mm 3 m/s 719 mmHg 55%
    10:00 +22°C° 0.1 mm 3 m/s 719 mmHg 56%
    11:00 +24°C° 0.1 mm 3 m/s 719 mmHg 57%
    12:00 +25°C° 0 mm 3 m/s 719 mmHg 54%
    13:00 +27°C° 0 mm 3 m/s 718 mmHg 51%
    14:00 +28°C° 0 mm 3 m/s 718 mmHg 49%
    15:00 +28°C° 0 mm 3 m/s 717 mmHg 49%
    16:00 +28°C° 0 mm 3 m/s 716 mmHg 50%
    17:00 +28°C° 0 mm 4 m/s 716 mmHg 51%
    18:00 +26°C° 0 mm 3 m/s 716 mmHg 58%
    19:00 +25°C° 0 mm 2 m/s 716 mmHg 65%
    20:00 +23°C° 0 mm 1 m/s 716 mmHg 72%
    21:00 +23°C° 0 mm 1 m/s 716 mmHg 73%
    22:00 +22°C° 0 mm 1 m/s 716 mmHg 75%
    23:00 +22°C° 0 mm 1 m/s 716 mmHg 77%

    28 Outubro, Segunda-feira

    Tempo Temperatura Precipitação Vento Pressão Humidade
    00:00 +22°C° 0 mm 1 m/s 716 mmHg 78%
    01:00 +22°C° 0 mm 1 m/s 715 mmHg 79%
    02:00 +21°C° 0 mm 1 m/s 714 mmHg 81%
    03:00 +21°C° 0 mm 1 m/s 715 mmHg 82%
    04:00 +21°C° 0 mm 1 m/s 715 mmHg 83%
    05:00 +21°C° 0 mm 1 m/s 715 mmHg 85%
    06:00 +21°C° 0 mm 4 m/s 716 mmHg 78%
    07:00 +21°C° 0 mm 7 m/s 717 mmHg 71%
    08:00 +22°C° 0 mm 9 m/s 718 mmHg 64%
    09:00 +22°C° 0 mm 9 m/s 718 mmHg 60%
    10:00 +21°C° 0 mm 9 m/s 719 mmHg 56%
    11:00 +21°C° 0 mm 8 m/s 719 mmHg 51%
    12:00 +22°C° 0 mm 7 m/s 719 mmHg 45%
    13:00 +24°C° 0 mm 7 m/s 719 mmHg 39%
    14:00 +26°C° 0 mm 6 m/s 719 mmHg 33%
    15:00 +26°C° 0 mm 5 m/s 719 mmHg 32%
    16:00 +26°C° 0 mm 5 m/s 718 mmHg 31%
    17:00 +25°C° 0 mm 5 m/s 718 mmHg 30%
    18:00 +22°C° 0 mm 4 m/s 719 mmHg 34%
    19:00 +21°C° 0 mm 3 m/s 719 mmHg 38%
    20:00 +19°C° 0 mm 2 m/s 720 mmHg 42%
    21:00 +18°C° 0 mm 2 m/s 720 mmHg 44%
    22:00 +17°C° 0 mm 2 m/s 720 mmHg 46%
    23:00 +18°C° 0 mm 1 m/s 720 mmHg 48%

    29 Outubro, Terça-feira

    Tempo Temperatura Precipitação Vento Pressão Humidade
    00:00 +16°C° 0 mm 1 m/s 720 mmHg 49%
    01:00 +16°C° 0 mm 1 m/s 719 mmHg 50%
    02:00 +15°C° 0 mm 1 m/s 719 mmHg 50%
    03:00 +15°C° 0 mm 1 m/s 719 mmHg 51%
    04:00 +14°C° 0 mm 1 m/s 719 mmHg 53%
    05:00 +14°C° 0 mm 1 m/s 719 mmHg 54%
    06:00 +16°C° 0 mm 1 m/s 720 mmHg 49%
    07:00 +18°C° 0 mm 1 m/s 720 mmHg 45%
    08:00 +20°C° 0 mm 1 m/s 721 mmHg 40%
    09:00 +21°C° 0 mm 2 m/s 720 mmHg 34%
    10:00 +24°C° 0 mm 2 m/s 720 mmHg 28%
    11:00 +26°C° 0 mm 3 m/s 720 mmHg 22%
    12:00 +27°C° 0 mm 4 m/s 720 mmHg 20%
    13:00 +29°C° 0 mm 5 m/s 719 mmHg 19%
    14:00 +30°C° 0 mm 5 m/s 719 mmHg 18%
    15:00 +29°C° 0 mm 5 m/s 718 mmHg 19%
    16:00 +29°C° 0 mm 5 m/s 718 mmHg 21%
    17:00 +28°C° 0 mm 5 m/s 717 mmHg 23%
    18:00 +26°C° 0 mm 4 m/s 718 mmHg 28%
    19:00 +24°C° 0 mm 3 m/s 718 mmHg 33%
    20:00 +21°C° 0 mm 2 m/s 718 mmHg 38%
    21:00 +20°C° 0 mm 2 m/s 719 mmHg 40%
    22:00 +20°C° 0 mm 2 m/s 719 mmHg 42%
    23:00 +20°C° 0 mm 2 m/s 719 mmHg 44%
    Mostrar mais